CDT,Max TemperatureF,Mean TemperatureF,Min TemperatureF,Max Dew PointF,MeanDew PointF,Min DewpointF,Max Humidity, Mean Humidity, Min Humidity, Max Sea Level PressureIn, Mean Sea Level PressureIn, Min Sea Level PressureIn, Max VisibilityMiles, Mean VisibilityMiles, Min VisibilityMiles, Max Wind SpeedMPH, Mean Wind SpeedMPH, Max Gust SpeedMPH,PrecipitationIn, CloudCover, Events, WindDirDegrees
2013-8-1,88,76,64,68,66,62,100,72,43,30.07,30.03,29.99,10,10,5,13,4,17,0.00,0,,358
2013-8-2,86,73,60,71,66,60,100,79,57,30.03,29.99,29.94,10,8,0,12,3,15,T,1,Fog,192
2013-8-3,86,78,70,73,71,68,100,81,61,30.08,30.00,29.92,10,9,4,16,3,23,T,5,Rain-Thunderstorm,347
2013-8-4,83,75,66,68,64,62,97,74,51,30.15,30.11,30.07,10,10,8,10,5,14,0.00,0,,55
2013-8-5,72,69,66,70,65,62,97,85,73,30.09,30.01,29.92,10,9,2,10,5,14,0.36,8,Rain,128
2013-8-6,83,78,72,73,71,70,93,81,69,29.95,29.92,29.87,10,7,2,12,3,17,0.07,5,Rain-Thunderstorm,136
2013-8-7,83,77,70,73,71,68,100,85,69,29.96,29.90,29.85,10,9,2,10,2,15,0.42,5,Rain-Thunderstorm,205
2013-8-8,84,77,69,75,72,68,100,85,70,30.00,29.93,29.89,10,7,0,12,2,20,1.14,3,Fog-Rain,305
2013-8-9,81,76,71,75,73,70,100,90,79,30.05,29.99,29.92,10,8,0,17,3,21,1.60,5,Fog-Rain,40
2013-8-10,86,78,70,73,70,68,97,79,61,30.12,30.07,30.04,10,8,1,14,2,16,0.36,7,Rain-Thunderstorm,9
2013-8-11,89,78,67,74,70,66,94,75,55,30.13,30.08,30.04,10,10,9,9,2,10,0.00,2,,28
2013-8-12,89,81,72,77,73,70,100,86,72,30.05,29.99,29.91,10,9,4,18,4,35,T,4,Rain-Thunderstorm,238
2013-8-13,84,75,65,72,67,62,100,74,48,30.07,29.98,29.94,10,10,9,14,6,17,0.00,1,,356
2013-8-14,76,66,55,60,54,50,93,68,43,30.17,30.13,30.07,10,10,10,18,8,22,0.00,0,,45
2013-8-15,77,64,51,58,54,50,100,72,43,30.14,30.10,30.05,10,10,10,13,4,16,0.00,1,,37
2013-8-16,79,67,54,63,59,54,100,77,54,30.11,30.09,30.07,10,10,6,15,5,20,0.00,4,,37
2013-8-17,81,71,61,65,63,59,97,74,51,30.16,30.11,30.07,10,10,7,16,6,21,0.00,4,Thunderstorm,59
2013-8-18,80,71,61,70,64,60,100,84,67,30.15,30.12,30.07,10,6,0,10,2,14,0.00,4,Fog,62
2013-8-19,84,74,64,69,66,64,100,79,58,30.14,30.09,30.03,10,4,0,7,2,13,0.00,4,Fog,109
2013-8-20,87,75,62,71,65,61,100,75,50,30.11,30.07,30.03,10,4,0,6,0,9,0.00,0,Fog,63
2013-8-21,88,76,63,72,68,63,100,77,53,30.15,30.10,30.05,10,6,0,8,1,12,0.00,1,Fog,166
2013-8-22,91,78,64,73,68,64,100,76,52,30.12,30.08,30.01,10,5,0,9,1,13,0.00,1,Fog,262
2013-8-23,90,79,67,74,70,66,100,78,56,30.09,30.05,30.01,10,4,0,13,3,15,0.00,2,Fog,37
2013-8-24,90,77,64,72,67,64,100,74,47,30.19,30.14,30.09,10,5,0,12,3,16,0.00,0,Fog,89
2013-8-25,88,76,63,75,70,62,100,82,63,30.26,30.21,30.17,10,8,4,13,3,15,T,2,Rain,163
2013-8-26,89,79,68,74,70,66,100,80,59,30.25,30.21,30.11,10,4,0,10,4,15,0.00,0,Fog,207
2013-8-27,89,79,68,74,70,66,100,82,63,30.12,30.08,30.02,10,7,0,10,4,14,0.00,0,Fog,227
2013-8-28,92,80,67,73,69,66,100,74,47,30.06,30.03,29.99,10,7,0,10,2,13,0.00,0,Fog,260
2013-8-29,95,82,68,76,71,66,100,72,43,30.04,30.00,29.96,10,8,2,9,2,15,0.00,0,,273
2013-8-30,95,81,67,76,71,66,100,73,46,30.00,29.94,29.87,10,6,0,8,2,12,0.00,1,Fog-Thunderstorm,250
2013-8-31,95,85,74,76,73,72,94,73,52,29.88,29.83,29.76,10,10,8,12,4,22,0.00,1,,219